Back to catalog

COSMOS 249 DEB

AliveLEO
NORAD 3912·DEBRIS·🇷🇺 Russia

Launched Oct 20, 1968 from Baikonur Cosmodrome

Loading…

Next Passes (next 24 hours)

TLE

FreshSource: Space-Track

Epoch: Sep 13, 2026, 14:58 UTC

1 03912U 68091BQ  26256.62370763  .00000434  00000-0  65103-3 0  9993
2 03912  62.2453  63.6058 0796465  90.7168 278.5049 12.74422248656597

Track COSMOS 249 DEB in real time with AllMySat

Download on the App Store